Location: Brantley
(31.5822°N, 86.2569°W)
Time: 21:55:08
(UTC+00:00)

A-11 Canister half - Pass Details

Date: 16 February 2026
Orbit: 1525 x 1683 km, 47.3° (Epoch: 10 March)

Event Time Altitude Azimuth Distance (km) Brightness Sun altitude
Rises 00:00:58 0° 267° (W) 4,705 13.9 -6.8°
Reaches altitude 10° 00:04:23 10° 276° (W) 3,708 12.5 -7.6°
Maximum altitude 00:12:51 37° 341° (NNW) 2,202 9.9 -9.3°
Drops below altitude 10° 00:21:18 10° 47° (NE) 3,698 10.5 -11.1°
Enters shadow 00:22:26 - 50° (NE) 4,018 10.7 -11.4°
